STARLINK-33828, 63493

Orbit data source: Space-Track

STARLINK-33828, 63493 is a payload satellite in LEO that was launched on Mon, 07 Apr 2025 UTC via an FALCON 9 launch vehicle from the Air Force Western Test Range (AFWTR). Payload-class satellites include a variety of spacecraft equipped with specific instruments for various scientific and technological missions. These include communications satellites like Starlink; space stations such as the ISS; scientific satellites like the Hubble; Earth observation satellites from companies like Planet Labs, Umbra, and HawkEye 360; GPS; miniature CubeSats for education and research; and military/defense satellites.

Loading next visibility...
Identifier
63493, 2025-071A
Orbit
LEO
Last TLE update
11 hours ago
Origin
Manufacturer
SpaceX/Seattle
Mission
Operational Commercial Communications
Bus & Motor
STARLINK V2MO, Unknown motor
Mass
575 kg wet, ~530 kg dry
Launch date (UTC)
2025-04-07 (1 month ago)
Launch vehicle
FALCON 9
Launch site
Air Force Western Test Range (AFWTR)
Object type
Payload
Rocket body
Debris
Shape & HBR
Box + 1 Pan, 29 m
Radar Cross Section
41.120 m², Large (>1 m²)

Expand to show TLE details & history

TLE from 11 hours ago
0 STARLINK-33828
1 63493U 25071A   25140.25002315  .00058343  00000-0  14594-2 0  9998
2 63493  53.1596  66.8960 0001197  76.4447  48.0595 15.39578491  7764
Epoch: 2025-05-20T06:00Z
TLE epoch observation values (Epoch: 2025-05-20T06:00:02Z)
Latitude
41.39076°
Longitude
-122.30644°
Altitude
450.694 km
Speed
7.648 km/s
True Right ascension
13h 43m 24s
True Declination
41° 12' 45"
Sunlit
Object was in full shadow at epoch
Visualization orbit readout
Latitude
10.08003°
Longitude
-91.05225°
Altitude
447.346 km
Speed
7.646 km/s
Apparent Right ascension
15h 02m 38s
Apparent Declination
-14° 18' 52"
Sunlit
Object is in full shadow
Visualization observer readout
Local Sidereal Time
01:59:27
Azimuth
327.155° NNW
Elevation
-60.897°
Doppler factor
1
Orbital elements
Apogee altitude
448.429 km
Perigee altitude
446.795 km
Semi-major axis
6,825.749 km
Eccentricity
0.00012
Inclination
53.1596°
RAAN
66.896°
Arg. of periapsis
76.4447°
True anomaly
Unknown
Mean anomaly
48.0595°
Eccentric anomaly
Unknown
Mean motion
3.84873 °/min
Orbital period
93.54 mins
BSTAR
0.0014594
Loading maneuver chart data...
Loading SW <> Apogee altitude chart data...
Loading historical data...
Loading historical data...
Loading historical data...
Loading historical data...
Loading historical data...
Loading historical data...
Loading historical data...

STARLINK-33828 Visibility forecast

Observer location: undefined°, undefined°

Span
Click to sort rows by Start time (UTC) header in descending order
Start Az.
Max El. time (UTC)
Max El. Az.
Max El.
End time (UTC)
End Az.
5 mins2025-05-20 21:12:29.891Z191.678° SSW2025-05-20 21:14:29.891Z146.167° SSE28.557°2025-05-20 21:17:29.891Z70.926° E
4 mins2025-05-20 22:50:29.891Z285.029° WNW2025-05-20 22:52:29.891Z342.196° N25.338°2025-05-20 22:54:29.891Z25.101° NE
4 mins2025-05-21 03:45:29.891Z343.924° N2025-05-21 03:47:29.891Z44.052° NE26.954°2025-05-21 03:49:29.891Z88.553° E
4 mins2025-05-21 05:22:29.891Z277.725° WNW2025-05-21 05:24:29.891Z224.178° SW26.617°2025-05-21 05:26:29.891Z175.084° S
|